Date String (YYYY-MM-DD hh:mm:ss) UTC,Instrument flags,absolute air pressure of the measurement (hPa),sample flow rate (lpm),inlet stack bypass flow (lpm),air temperature of the measurement (°C),ambient temperature measured by the external sensor (°C),aerosol sample conditioner tube jacket temperature (°C),OPC LED temperature (°C),internal box temperature (°C),relative humidity of the measurement (%),span deviation,mass concentration of particles derived from Lorenz-Mie calculation of OPC scattering (μg/m³),mass concentration of particles derived from Lorenz-Mie calculation of OPC scattering (μg/m³),mass concentration of particles derived from Lorenz-Mie calculation of OPC scattering (μg/m³)
DateTimeUTC,F1_M11,P_M11,Q1_M11,Q2_M11,T1_M11,T2_M11,T3_M11,T4_M11,T5_M11,U1_M11,ZSPAN_M11,X0_M11,X2_M11,X1_M11
2024-02-16 21:00:00,SystemResetWarning,0829.5,5.01,000.00,018.3,017.7,000.0,027.1,020.1,19.2,0001.0,0012.47,0007.34,0007.04
2024-02-16 21:01:00,SystemResetWarning,0829.6,5.00,000.00,018.5,018.4,000.0,027.1,020.5,19.1,0001.1,0012.49,0007.32,0007.04
2024-02-16 21:02:00,SystemResetWarning,0829.6,5.00,000.00,018.7,019.1,000.0,027.2,020.9,18.8,0001.0,0012.52,0007.32,0007.04
2024-02-16 21:03:00,SystemResetWarning,0829.6,4.99,000.00,018.8,019.0,000.0,027.1,020.8,18.7,0001.0,0012.65,0007.26,0007.01
2024-02-16 21:04:00,SystemResetWarning,0829.6,5.00,000.00,018.7,018.8,000.0,027.1,020.6,18.8,0000.8,0011.92,0007.23,0006.99
2024-02-16 21:05:00,SystemResetWarning,0829.6,5.00,000.00,018.7,018.7,000.0,027.0,020.4,18.9,0000.6,0011.72,0007.19,0006.95
2024-02-16 21:06:00,SystemResetWarning,0829.7,5.00,000.00,018.7,018.5,000.0,027.0,020.3,19.0,0000.4,0011.59,0007.17,0006.93
2024-02-16 21:07:00,SystemResetWarning,0829.7,5.00,000.00,018.6,018.4,000.0,027.0,020.2,19.2,0000.2,0011.31,0007.18,0006.91
2024-02-16 21:08:00,SystemResetWarning,0829.7,5.00,000.00,018.6,018.3,000.0,027.0,020.1,19.2,0000.3,0011.64,0007.17,0006.88
2024-02-16 21:09:00,SystemResetWarning,0829.7,5.00,000.00,018.5,018.1,000.0,027.0,020.0,19.3,0000.3,0011.64,0007.17,0006.86
2024-02-16 21:10:00,SystemResetWarning,0829.7,5.00,000.00,018.5,018.0,000.0,027.0,020.0,19.4,0000.4,0011.68,0007.18,0006.87
2024-02-16 21:11:00,SystemResetWarning,0829.7,5.00,000.00,018.4,018.0,000.0,027.0,020.0,19.4,0000.3,0011.82,0007.22,0006.87
2024-02-16 21:12:00,SystemResetWarning,0829.7,4.99,000.00,018.4,017.9,000.0,027.0,020.0,19.4,0000.5,0011.81,0007.24,0006.87
2024-02-16 21:13:00,SystemResetWarning,0829.7,5.00,000.00,018.4,017.8,000.0,027.0,020.0,19.5,0000.5,0011.85,0007.25,0006.87
2024-02-16 21:14:00,SystemResetWarning,0829.8,5.00,000.00,018.4,017.8,000.0,027.0,020.0,19.6,0000.5,0011.57,0007.27,0006.87
2024-02-16 21:15:00,SystemResetWarning,0829.7,5.00,000.00,018.4,017.7,000.0,027.0,020.0,19.6,0000.7,0011.48,0007.24,0006.87
2024-02-16 21:16:00,SystemResetWarning,0829.8,5.02,000.00,018.4,017.7,000.0,027.0,020.0,19.7,0001.0,0011.05,0007.25,0006.88
2024-02-16 21:17:00,SystemResetWarning,0829.8,5.01,000.00,018.4,018.1,000.0,027.1,020.3,19.6,0001.3,0010.98,0007.26,0006.89
2024-02-16 21:18:00,SystemResetWarning,0829.9,5.00,000.00,018.7,019.0,000.0,027.2,020.9,19.3,0001.7,0010.88,0007.24,0006.85
2024-02-16 21:19:00,SystemResetWarning,0829.9,4.99,000.00,018.8,019.2,000.0,027.1,020.9,19.1,0001.8,0010.43,0007.19,0006.84
2024-02-16 21:20:00,SystemResetWarning,0829.8,4.99,000.00,018.8,019.1,000.0,027.1,020.7,19.1,0002.1,0010.29,0007.17,0006.84
2024-02-16 21:21:00,SystemResetWarning,0829.8,5.00,000.00,018.8,018.9,000.0,027.1,020.6,19.2,0002.1,0010.28,0007.18,0006.83
2024-02-16 21:22:00,SystemResetWarning,0829.8,5.00,000.00,018.8,018.7,000.0,027.1,020.4,19.2,0002.1,0010.13,0007.13,0006.82
2024-02-16 21:23:00,SystemResetWarning,0829.8,5.01,000.00,018.7,018.5,000.0,027.0,020.3,19.3,0002.1,0010.27,0007.08,0006.79
2024-02-16 21:24:00,SystemResetWarning,0829.7,5.00,000.00,018.7,018.4,000.0,027.0,020.2,19.3,0002.1,0010.13,0007.06,0006.77
2024-02-16 21:25:00,SystemResetWarning,0829.7,5.00,000.00,018.6,018.3,000.0,027.0,020.2,19.4,0002.1,0010.12,0007.04,0006.75
2024-02-16 21:26:00,SystemResetWarning,0829.7,5.00,000.00,018.6,018.2,000.0,027.0,020.1,19.4,0002.1,0010.16,0007.06,0006.74
2024-02-16 21:27:00,SystemResetWarning,0829.7,4.99,000.00,018.5,018.1,000.0,027.0,020.1,19.4,0002.0,0010.15,0007.04,0006.72
2024-02-16 21:28:00,SystemResetWarning,0829.7,5.00,000.00,018.5,018.0,000.0,027.0,020.0,19.5,0001.9,0010.13,0007.02,0006.70
2024-02-16 21:29:00,SystemResetWarning,0829.7,5.00,000.00,018.5,017.9,000.0,027.0,020.0,19.5,0001.9,0010.10,0007.01,0006.72
2024-02-16 21:30:00,SystemResetWarning,0829.7,5.00,000.00,018.4,017.9,000.0,027.0,020.0,19.5,0001.9,0010.11,0007.02,0006.72
2024-02-16 21:31:00,SystemResetWarning,0829.8,5.00,000.00,018.4,018.0,000.0,027.1,020.2,19.5,0001.8,0010.10,0006.99,0006.70
2024-02-16 21:32:00,SystemResetWarning,0829.9,5.01,000.00,018.6,018.7,000.0,027.2,020.7,19.4,0001.7,0010.04,0006.95,0006.67
2024-02-16 21:33:00,SystemResetWarning,0830.0,5.01,000.00,018.8,019.3,000.0,027.2,021.1,19.1,0001.6,0009.94,0006.93,0006.65
2024-02-16 21:34:00,SystemResetWarning,0830.0,4.98,000.00,018.9,019.2,000.0,027.2,020.9,19.1,0001.5,0009.64,0006.94,0006.66
2024-02-16 21:35:00,SystemResetWarning,0829.9,5.01,000.00,018.9,019.0,000.0,027.2,020.7,19.1,0001.6,0009.64,0006.92,0006.64
2024-02-16 21:36:00,SystemResetWarning,0829.9,5.01,000.00,018.8,018.8,000.0,027.1,020.6,19.1,0001.6,0009.58,0006.90,0006.64
2024-02-16 21:37:00,SystemResetWarning,0830.0,4.98,000.00,018.8,018.7,000.0,027.1,020.5,19.1,0001.4,0009.48,0006.84,0006.60
2024-02-16 21:38:00,SystemResetWarning,0830.0,5.00,000.00,018.8,018.5,000.0,027.1,020.4,19.2,0001.4,0009.44,0006.81,0006.57
2024-02-16 21:39:00,SystemResetWarning,0830.0,5.02,000.00,018.7,018.4,000.0,027.1,020.3,19.2,0001.5,0009.60,0006.80,0006.58
2024-02-16 21:40:00,SystemResetWarning,0830.0,4.99,000.00,018.7,018.3,000.0,027.1,020.2,19.2,0001.4,0009.76,0006.77,0006.56
2024-02-16 21:41:00,SystemResetWarning,0830.0,4.99,000.00,018.6,018.2,000.0,027.1,020.1,19.3,0001.4,0009.74,0006.76,0006.55
2024-02-16 21:42:00,SystemResetWarning,0830.0,5.00,000.00,018.6,018.1,000.0,027.1,020.1,19.3,0001.5,0009.81,0006.79,0006.57
2024-02-16 21:43:00,SystemResetWarning,0830.0,5.01,000.00,018.5,018.0,000.0,027.0,020.1,19.4,0001.5,0009.75,0006.81,0006.61
2024-02-16 21:44:00,SystemResetWarning,0830.1,5.00,000.00,018.5,017.9,000.0,027.0,020.0,19.4,0001.6,0009.75,0006.81,0006.62
2024-02-16 21:45:00,SystemResetWarning,0830.0,4.99,000.00,018.4,017.9,000.0,027.1,020.1,19.4,0001.9,0009.83,0006.84,0006.62
2024-02-16 21:46:00,SystemResetWarning,0830.1,5.02,000.00,018.5,018.4,000.0,027.2,020.5,19.4,0002.1,0009.82,0006.84,0006.61
2024-02-16 21:47:00,SystemResetWarning,0830.2,5.00,000.00,018.8,019.2,000.0,027.3,021.0,19.1,0002.2,0009.81,0006.83,0006.59
2024-02-16 21:48:00,SystemResetWarning,0830.1,4.98,000.00,018.9,019.3,000.0,027.2,021.0,18.9,0001.9,0010.39,0006.83,0006.59
2024-02-16 21:49:00,SystemResetWarning,0830.1,5.01,000.00,018.9,019.1,000.0,027.2,020.8,18.9,0002.0,0010.46,0006.89,0006.65
2024-02-16 21:50:00,SystemResetWarning,0830.1,5.00,000.00,018.9,018.9,000.0,027.2,020.6,18.9,0001.9,0010.50,0006.90,0006.64
2024-02-16 21:51:00,SystemResetWarning,0830.1,5.00,000.00,018.8,018.7,000.0,027.2,020.4,18.9,0001.6,0010.11,0006.87,0006.62
2024-02-16 21:52:00,SystemResetWarning,0830.1,5.00,000.00,018.8,018.5,000.0,027.1,020.3,19.0,0001.4,0010.08,0006.87,0006.61
2024-02-16 21:53:00,SystemResetWarning,0830.2,5.00,000.00,018.7,018.4,000.0,027.1,020.2,19.1,0001.3,0010.00,0006.83,0006.58
2024-02-16 21:54:00,SystemResetWarning,0830.1,5.00,000.00,018.6,018.3,000.0,027.1,020.1,19.1,0001.3,0010.00,0006.81,0006.55
2024-02-16 21:55:00,SystemResetWarning,0830.2,5.00,000.00,018.6,018.2,000.0,027.1,020.1,19.2,0001.4,0009.93,0006.77,0006.51
2024-02-16 21:56:00,SystemResetWarning,0830.3,5.01,000.00,018.6,018.1,000.0,027.0,020.0,19.2,0001.3,0009.79,0006.69,0006.46
2024-02-16 21:57:00,SystemResetWarning,0830.2,5.00,000.00,018.5,018.0,000.0,027.1,020.0,19.2,0001.0,0009.72,0006.64,0006.41
2024-02-16 21:58:00,SystemResetWarning,0830.2,5.00,000.00,018.5,017.9,000.0,027.1,020.0,19.3,0000.7,0009.74,0006.65,0006.42
2024-02-16 21:59:00,SystemResetWarning,0830.3,4.99,000.00,018.5,017.8,000.0,027.1,020.0,19.3,0001.0,0009.14,0006.65,0006.42
